Flag for Trinidad and Tobago Weather past 2 weeks in Port of Spain, Trinidad and Tobago

Now
86 °F

Scattered clouds.


Feels Like: 93 °F
Forecast: N/A
Wind: 15 mph from East

Location: Piarco International Airport - Trinidad

Current Time: Jul 12, 2014 at 4:52:17 PM

Latest Report: Jul 12, 2014 at 4:00 PM


Visibility: N/A

Pressure: 29.92 "Hg

Humidity: 66%

Dew point: 73 °F

Location of Port of SpainLocation

Historic Weather in Port of Spain — Graph

°F

Port of Spain temperature yesterday

Maximum temperature yesterday: 86 °F (at 3:00 PM)
Minimum temperature yesterday: 75 °F (at 7:00 AM)
Average temperature yesterday: 80 °F

Past Weeks' High & Low Weather Summary

 TemperatureHumidityPressure
High91 °F (Jun 30, 11:00 AM)100% (Jul 10, 3:00 AM)30.07 "Hg (Jul 10, 3:00 AM)
Low75 °F (Jul 2, 5:00 AM)44% (Jul 2, 12:00 PM)29.89 "Hg (Jun 30, 4:00 PM)
Average82 °F76%29.97 "Hg
* Reported Jun 27 3:00 PM — Jul 12 3:00 PM, Port of Spain, Weather by CustomWeather, © 2014

Note: Actual official high and low records may vary slightly from our data, if they occured in-between our weather recording intervals... More about our weather records

Advertising

Port of Spain weather history for previous 24 hours

 ConditionsComfort  
Time TempWeatherWind HumidityBarometerVisibility
3:00 PM
Jul 12
88 °FPassing clouds.16 mph62%29.95 "HgN/A
2:00 PM90 °FScattered clouds.18 mph59%29.95 "HgN/A
1:00 PM90 °FScattered showers. Scattered clouds.15 mph59%29.95 "HgN/A
12:00 PM88 °FScattered showers. Scattered clouds.17 mph62%29.98 "HgN/A
11:00 AM88 °FPartly sunny.16 mph59%29.98 "HgN/A
10:00 AM88 °FScattered clouds.14 mph62%29.98 "HgN/A
9:00 AM86 °FScattered showers. Passing clouds.13 mph62%29.98 "HgN/A
8:00 AM84 °FPartly sunny.12 mph70%29.98 "HgN/A
7:00 AM81 °FPartly sunny.No wind79%29.98 "HgN/A
6:00 AM79 °FPartly sunny.6 mph84%29.95 "HgN/A
5:00 AM79 °FPassing clouds.6 mph84%29.95 "HgN/A
4:00 AM81 °FPassing clouds.13 mph84%29.95 "HgN/A
3:00 AM79 °FPassing clouds.3 mph89%29.95 "HgN/A
2:00 AM79 °FPassing clouds.6 mph84%29.95 "HgN/A
1:00 AM79 °FPassing clouds.12 mph89%29.95 "HgN/A
12:00 AM81 °FPassing clouds.6 mph79%29.98 "HgN/A
11:00 PM
Jul 11
81 °FPassing clouds.6 mph79%29.98 "HgN/A
10:00 PM81 °FPassing clouds.9 mph66%29.98 "HgN/A
9:00 PM81 °FPassing clouds.12 mph84%29.98 "HgN/A
8:00 PM81 °FPassing clouds.12 mph79%29.95 "HgN/A
7:00 PM82 °FPassing clouds.14 mph74%29.95 "HgN/A
6:00 PM84 °FPassing clouds.14 mph70%29.92 "HgN/A
5:00 PM84 °FPassing clouds.17 mph70%29.92 "HgN/A
4:00 PM86 °FScattered clouds.21 mph66%29.95 "HgN/A
Weather by CustomWeather, © 2014

See weather overviewHow to use our weather pages